User: anonymous
Location: Vancouver
(49.2500°N, 123.1330°W)
Time: 16:37:28
(UTC-07:00)
Language:

JAS-1B - Orbit

View from above orbital plane
View from above orbital plane
View from above satellite
View from above satellite

Ground track
Ground track

The orbit data is extracted from the following two-line orbital elements,

1 20480U 90013C   14259.79486311 -.00000017  00000-0  28163-4 0  8359
2 20480 099.0554 205.7443 0540889 146.2687 248.7035 12.83395568152884
Epoch (UTC): 16 September 2014 19:04:36
Eccentricity: 0.0540889
inclination: 99.0554°
perigee height: 911 km
apogee height: 1744 km
right ascension of ascending node: 205.7443°
argument of perigee: 146.2687°
revolutions per day: 12.83395568
mean anomaly at epoch: 248.7035°
orbit number at epoch: 15288

The dashed part of the orbit path shows where the satellite is in the earth's shadow,  

DLR